Time,TemperatureF,DewpointF,PressureIn,WindDirection,WindDirectionDegrees,WindSpeedMPH,WindSpeedGustMPH,Humidity,HourlyPrecipIn,Conditions,Clouds,dailyrainin,SoftwareType,DateUTC
2013-07-16 00:05:00,52.3,52.3,29.77,South,184,0.0,0.0,100,0.00,,,0.00,Wunderground v.1.15,2013-07-16 07:05:00,
2013-07-16 00:35:00,51.7,51.7,29.77,South,184,0.0,0.0,100,0.00,,,0.00,Wunderground v.1.15,2013-07-16 07:35:00,
2013-07-16 01:05:00,51.3,51.3,29.77,South,184,0.0,0.0,100,0.00,,,0.00,Wunderground v.1.15,2013-07-16 08:05:00,
2013-07-16 01:35:00,50.7,50.7,29.76,South,184,0.0,0.0,100,0.00,,,0.00,Wunderground v.1.15,2013-07-16 08:35:00,
2013-07-16 02:05:00,50.5,50.5,29.77,South,184,0.0,0.0,100,0.00,,,0.00,Wunderground v.1.15,2013-07-16 09:05:00,
2013-07-16 02:35:00,50.2,50.2,29.76,South,184,0.0,0.0,100,0.00,,,0.00,Wunderground v.1.15,2013-07-16 09:35:00,
2013-07-16 03:05:00,49.5,49.5,29.76,South,184,0.0,0.0,100,0.00,,,0.00,Wunderground v.1.15,2013-07-16 10:05:00,
2013-07-16 03:35:00,49.2,49.2,29.76,South,184,0.0,0.0,100,0.00,,,0.00,Wunderground v.1.15,2013-07-16 10:35:00,
2013-07-16 04:05:00,49.2,49.2,29.76,South,184,0.0,0.0,100,0.00,,,0.00,Wunderground v.1.15,2013-07-16 11:05:00,
2013-07-16 04:35:00,48.8,48.8,29.75,South,184,0.0,0.0,100,0.00,,,0.00,Wunderground v.1.15,2013-07-16 11:35:00,
2013-07-16 05:05:00,49.2,49.2,29.75,South,184,0.0,0.0,100,0.00,,,0.00,Wunderground v.1.15,2013-07-16 12:05:00,
2013-07-16 05:35:00,49.8,49.8,29.77,South,184,0.0,0.0,100,0.00,,,0.00,Wunderground v.1.15,2013-07-16 12:35:00,
2013-07-16 06:05:00,50.5,50.5,29.76,South,184,0.0,0.0,100,0.00,,,0.00,Wunderground v.1.15,2013-07-16 13:05:00,
2013-07-16 06:35:00,50.4,50.4,29.77,South,184,0.0,0.0,100,0.00,,,0.00,Wunderground v.1.15,2013-07-16 13:35:00,
2013-07-16 07:05:00,50.4,50.4,29.77,South,184,0.0,0.0,100,0.00,,,0.00,Wunderground v.1.15,2013-07-16 14:05:00,
2013-07-16 07:35:00,50.8,50.8,29.78,South,184,0.0,0.0,100,0.00,,,0.00,Wunderground v.1.15,2013-07-16 14:35:00,
2013-07-16 08:05:00,52.9,52.9,29.80,South,175,0.0,0.0,100,0.00,,,0.00,Wunderground v.1.15,2013-07-16 15:05:00,
2013-07-16 08:35:00,55.6,55.6,29.78,South,175,0.0,0.0,100,0.00,,,0.00,Wunderground v.1.15,2013-07-16 15:35:00,
2013-07-16 09:05:00,56.6,56.6,29.78,South,175,0.0,0.0,100,0.00,,,0.00,Wunderground v.1.15,2013-07-16 16:05:00,
2013-07-16 09:35:00,57.8,57.8,29.80,ESE,104,0.0,0.0,100,0.00,,,0.00,Wunderground v.1.15,2013-07-16 16:35:00,
2013-07-16 10:05:00,60.7,58.7,29.80,WNW,284,0.0,0.0,93,0.00,,,0.00,Wunderground v.1.15,2013-07-16 17:05:00,
2013-07-16 10:35:00,62.0,59.3,29.81,WNW,282,0.0,0.0,91,0.00,,,0.00,Wunderground v.1.15,2013-07-16 17:35:00,
2013-07-16 11:05:00,60.9,59.8,29.81,WNW,284,0.0,0.0,96,0.00,,,0.00,Wunderground v.1.15,2013-07-16 18:05:00,
2013-07-16 11:35:00,61.3,59.9,29.82,WNW,284,0.0,0.0,95,0.00,,,0.00,Wunderground v.1.15,2013-07-16 18:35:00,
2013-07-16 12:05:00,60.1,59.2,29.83,West,265,0.0,0.0,97,0.00,,,0.00,Wunderground v.1.15,2013-07-16 19:05:00,
2013-07-16 12:35:00,59.2,58.9,29.84,SW,226,0.0,0.0,99,0.00,,,0.00,Wunderground v.1.15,2013-07-16 19:35:00,
2013-07-16 13:05:00,59.3,59.3,29.84,NE,34,0.0,0.0,100,0.00,,,0.00,Wunderground v.1.15,2013-07-16 20:05:00,
2013-07-16 13:35:00,59.6,59.6,29.85,WNW,287,0.0,0.0,100,0.00,,,0.00,Wunderground v.1.15,2013-07-16 20:35:00,
2013-07-16 14:05:00,60.2,60.2,29.86,ENE,71,0.0,0.0,100,0.00,,,0.00,Wunderground v.1.15,2013-07-16 21:05:00,
2013-07-16 14:35:00,59.8,59.8,29.87,ENE,58,0.0,0.0,100,0.00,,,0.00,Wunderground v.1.15,2013-07-16 21:35:00,
2013-07-16 15:05:00,59.5,59.5,29.88,ENE,59,0.0,0.0,100,0.00,,,0.00,Wunderground v.1.15,2013-07-16 22:05:00,
2013-07-16 15:35:00,58.1,58.1,29.89,WNW,282,0.0,0.0,100,0.00,,,0.00,Wunderground v.1.15,2013-07-16 22:35:00,
2013-07-16 16:05:00,57.2,57.2,29.90,WNW,294,0.0,0.0,100,0.00,,,0.00,Wunderground v.1.15,2013-07-16 23:05:00,
2013-07-16 16:35:00,56.6,56.6,29.91,WNW,294,0.0,0.0,100,0.00,,,0.00,Wunderground v.1.15,2013-07-16 23:35:00,
2013-07-16 17:05:00,56.3,56.3,29.91,WNW,282,0.0,0.0,100,0.00,,,0.00,Wunderground v.1.15,2013-07-17 00:05:00,
2013-07-16 17:35:00,55.9,55.9,29.92,West,281,0.0,0.0,100,0.00,,,0.00,Wunderground v.1.15,2013-07-17 00:35:00,
2013-07-16 18:05:00,55.6,55.6,29.92,West,281,0.0,0.0,100,0.00,,,0.00,Wunderground v.1.15,2013-07-17 01:05:00,
2013-07-16 18:35:00,55.4,55.4,29.92,West,281,0.0,0.0,100,0.00,,,0.00,Wunderground v.1.15,2013-07-17 01:35:00,
2013-07-16 19:05:00,55.1,55.1,29.92,West,281,0.0,0.0,100,0.00,,,0.00,Wunderground v.1.15,2013-07-17 02:05:00,
2013-07-16 19:35:00,55.0,55.0,29.93,WNW,296,0.0,0.0,100,0.00,,,0.00,Wunderground v.1.15,2013-07-17 02:35:00,
2013-07-16 20:05:00,54.8,54.8,29.94,WNW,295,0.0,0.0,100,0.00,,,0.00,Wunderground v.1.15,2013-07-17 03:05:00,
2013-07-16 20:35:00,54.7,54.7,29.95,WNW,295,0.0,0.0,100,0.00,,,0.00,Wunderground v.1.15,2013-07-17 03:35:00,
2013-07-16 21:05:00,54.8,54.8,29.95,WNW,295,0.0,0.0,100,0.00,,,0.00,Wunderground v.1.15,2013-07-17 04:05:00,
2013-07-16 21:35:00,54.5,54.5,29.96,WNW,295,0.0,0.0,100,0.00,,,0.00,Wunderground v.1.15,2013-07-17 04:35:00,
2013-07-16 22:05:00,54.5,54.5,29.98,WNW,295,0.0,0.0,100,0.00,,,0.00,Wunderground v.1.15,2013-07-17 05:05:00,
2013-07-16 22:35:00,54.7,54.7,29.99,WNW,295,0.0,0.0,100,0.00,,,0.00,Wunderground v.1.15,2013-07-17 05:35:00,
2013-07-16 23:05:00,54.7,54.7,30.00,NNE,24,0.0,0.0,100,0.00,,,0.00,Wunderground v.1.15,2013-07-17 06:05:00,
2013-07-16 23:35:00,54.7,54.7,30.00,NE,38,0.0,0.0,100,0.00,,,0.00,Wunderground v.1.15,2013-07-17 06:35:00,